Location: Stara Lesna
(49.1528°N, 20.2911°E)
Time: 13:33:13
(UTC+02:00)

Cosmos 2082 Rocket - Pass Details

Date: 21 September 2019
Orbit: 831 x 855 km, 71.0° (Epoch: 19 October)

Event Time Altitude Azimuth Distance (km) Brightness Sun altitude
Rises 23:59:31 0° 334° (NNW) 3,436 6.2 -39.4°
Reaches altitude 10° 00:02:20 10° 346° (NNW) 2,498 5.3 -39.5°
Enters shadow 00:05:24 24° 14° (NNE) 1,719 4.2 -39.6°
